Theta_e
322 313 317 316 299 297 294 298 304 303 309 315 329 331 329 331 325 315 341 342 342 341 346 348 348 351 352 354 354 354 354 355 355 355 355 355 355 355 355 355 355 355 355 353 352 351 349 348 348
317 315 313 305 296 291 294 302 308 312 314 320 329 333 331 327 338 338 340 345 343 341 343 347 348 349 351 353 354 354 355 356 356 355 355 354 355 355 354 354 354 355 355 353 352 351 349 347 346
317 316 304 299 294 292 293 302 314 317 319 318 322 338 336 331 339 339 345 347 344 343 345 347 348 348 349 350 352 353 354 354 354 354 355 355 355 355 354 353 354 355 355 353 352 352 349 345 344
308 307 305 295 293 298 300 303 308 316 317 319 331 329 336 343 340 341 346 347 346 345 345 345 346 347 349 349 350 351 352 351 352 353 354 355 355 355 354 353 354 355 354 354 354 354 349 345 343
304 303 295 294 296 301 306 306 307 307 317 318 325 328 330 340 343 343 344 348 345 343 344 345 344 347 348 349 349 348 348 349 350 351 352 353 354 354 353 352 352 353 353 353 352 351 349 347 344
299 302 293 291 296 302 305 305 307 309 314 317 326 329 329 341 340 341 345 344 344 343 343 344 347 347 347 346 346 346 346 347 348 350 351 352 351 351 351 351 351 351 351 350 350 350 347 345 344
296 294 292 295 298 302 306 308 308 307 309 312 322 325 330 336 340 341 343 344 344 343 342 343 344 344 342 342 343 344 345 346 347 347 348 348 348 347 349 348 348 349 348 348 347 347 347 348 346
299 297 294 295 297 297 307 309 309 308 305 322 325 323 322 335 340 340 341 341 341 342 342 340 340 338 336 337 340 341 342 342 344 344 343 344 345 346 346 346 346 347 346 346 346 346 345 345 344
302 293 291 295 296 300 307 305 308 310 311 323 328 330 335 340 338 337 335 336 339 341 341 339 339 338 336 335 339 340 341 341 341 341 342 340 342 343 343 342 344 345 345 345 346 345 344 343 342
297 292 294 301 300 299 302 303 303 306 307 320 329 335 337 337 335 332 332 332 334 336 341 341 340 339 337 340 335 335 338 337 338 339 339 338 336 336 337 337 338 340 340 341 342 342 341 340 341
297 294 300 303 304 301 300 303 305 302 305 310 326 330 333 333 332 332 332 333 334 335 338 343 342 341 337 336 337 338 336 336 334 337 337 335 333 333 334 333 333 335 338 338 340 341 340 341 340
296 301 301 301 304 302 300 303 303 303 305 310 321 333 332 330 330 331 331 332 332 334 334 337 341 340 337 337 338 336 336 333 330 331 334 333 330 328 328 329 328 326 327 329 331 334 334 333 335
300 300 303 304 303 304 305 301 302 302 306 307 310 332 329 329 330 331 331 332 331 332 331 331 331 329 326 324 324 322 322 325 325 324 325 330 326 322 323 323 324 324 325 325 326 328 328 331 332
305 305 304 304 303 305 303 301 299 303 306 306 307 327 328 328 329 329 328 330 330 327 327 324 325 323 323 321 320 319 319 319 318 317 317 320 323 324 322 321 322 324 325 324 324 324 324 324 325
306 301 304 305 304 303 304 298 299 304 304 303 304 317 326 328 329 329 330 327 327 324 323 321 322 322 320 319 318 317 318 316 314 314 315 315 317 316 316 320 317 313 313 314 315 315 317 318 317
301 301 295 302 304 304 301 295 301 304 302 302 303 304 323 325 327 329 330 327 325 322 321 321 324 320 318 317 316 315 315 313 312 311 311 312 313 312 313 311 311 311 311 310 310 311 310 310 310
297 291 295 298 305 304 300 298 302 305 305 302 302 304 308 323 324 328 329 325 321 320 320 318 319 318 317 315 314 313 312 311 311 310 309 309 311 311 310 309 309 309 309 308 308 308 307 307 305
293 293 294 295 301 304 299 298 301 304 303 303 302 302 304 310 320 325 327 324 320 320 319 319 318 317 315 312 311 310 309 308 309 308 308 308 307 309 307 306 306 306 306 305 305 305 305 305 304
299 297 296 299 303 301 299 300 301 304 302 302 303 302 304 306 312 322 325 322 318 319 318 318 316 314 313 309 308 307 305 305 305 305 307 306 306 306 305 304 303 305 304 303 304 303 303 302 303
300 297 296 299 303 302 300 299 300 303 303 304 304 304 302 303 305 313 320 319 317 317 316 316 316 315 313 310 308 308 306 305 304 304 304 305 304 304 304 303 303 304 304 303 303 302 302 302 302
298 296 296 296 301 300 297 296 298 302 304 306 306 306 306 304 304 310 318 316 315 315 315 315 316 314 313 311 309 307 304 302 301 301 301 302 303 304 304 304 303 303 303 302 301 301 301 301 301
294 302 302 300 298 289 297 287 295 300 302 303 304 304 305 306 308 310 315 313 314 315 315 315 314 313 312 310 308 306 301 299 299 299 300 301 303 303 304 303 303 302 302 300 300 301 299 300 297
297 301 299 300 293 291 292 291 292 300 299 301 304 304 305 306 307 308 311 312 310 312 310 313 313 313 312 310 307 305 302 301 300 299 299 300 300 302 303 302 301 300 299 298 298 297 297 297 296
300 297 297 296 293 284 292 292 289 293 297 300 303 304 305 305 307 309 314 312 310 310 310 311 312 311 311 309 307 304 302 301 299 298 298 298 299 299 301 302 299 299 298 297 296 295 295 294 294
296 292 284 282 282 282 294 291 292 299 301 302 301 302 305 306 306 307 309 310 309 309 309 310 310 310 310 308 306 305 304 300 299 299 298 297 297 297 298 298 297 296 297 297 296 294 294 293 292
295 293 285 280 280 284 293 287 293 301 303 303 302 300 300 302 306 306 307 308 308 309 309 309 309 308 309 307 306 307 306 301 301 300 300 299 298 298 298 297 297 296 296 296 295 295 294 292 291
295 290 295 290 289 279 287 292 299 303 302 303 302 298 296 299 300 302 306 307 306 308 308 307 307 307 306 307 306 307 306 303 301 301 300 300 299 299 297 296 295 295 294 294 293 292 292 292 291
296 299 289 289 280 280 286 287 289 294 297 300 299 297 296 299 300 301 302 305 306 307 308 306 305 305 305 305 305 306 305 303 303 302 298 299 299 299 296 295 295 295 293 292 292 291 290 291 290
291 290 292 291 287 279 278 282 295 294 297 296 297 298 295 298 299 300 301 304 305 306 307 305 304 303 303 303 303 302 301 302 300 299 298 297 297 297 296 295 294 293 293 292 291 290 290 289 289
294 292 291 281 282 283 280 282 298 296 297 297 295 296 295 300 298 299 300 303 303 305 304 304 303 302 301 301 300 298 299 300 297 296 296 295 295 295 294 294 293 293 291 291 290 290 290 289 288
Wind_Speed
10 10 1 3 5 4 6 10 7 2 7 6 9 17 12 9 4 6 7 16 17 14 10 10 14 14 13 13 12 12 11 10 10 11 11 10 11 10 8 8 9 8 8 8 8 8 9 8 6
5 8 1 1 4 1 7 5 5 7 5 10 19 12 9 5 4 16 9 15 15 14 10 8 12 13 13 12 12 11 11 11 10 11 11 10 10 10 9 8 8 7 6 6 7 8 7 7 5
3 5 3 4 4 5 4 7 7 6 8 6 7 9 6 7 2 3 16 17 17 13 11 10 12 12 12 11 11 11 11 11 11 10 10 11 10 9 9 8 7 7 7 5 6 7 6 5 4
3 3 5 2 9 13 10 7 6 5 4 7 8 11 5 4 5 6 14 15 16 12 11 11 11 11 12 12 11 11 11 10 10 10 9 10 9 9 8 8 6 6 6 6 5 7 6 4 3
0 1 1 3 10 10 14 4 5 4 6 6 6 6 5 3 7 8 13 16 16 11 10 9 11 10 10 11 11 11 10 10 9 9 9 9 8 8 8 8 7 6 6 5 4 6 5 4 3
4 2 3 5 9 8 6 3 4 4 3 3 8 8 4 7 8 7 15 16 13 13 10 9 11 10 10 10 10 10 11 10 10 8 8 8 8 7 7 6 5 5 5 4 3 4 4 3 3
4 2 5 6 9 13 9 4 5 4 7 4 11 7 5 6 6 9 14 14 14 13 10 8 8 9 11 10 10 10 10 10 9 8 8 7 6 6 6 5 4 4 4 4 3 2 1 4 4
0 3 3 4 6 8 9 8 6 7 4 6 4 8 7 10 7 10 13 11 11 10 10 9 7 7 6 6 11 10 10 10 9 8 7 6 5 6 6 6 5 5 5 4 3 3 3 4 5
1 2 3 6 1 8 8 9 10 8 3 7 4 4 11 18 13 10 9 8 9 8 10 10 9 8 8 7 7 10 11 10 10 8 8 4 2 3 5 6 4 2 3 6 6 5 5 5 6
5 4 7 7 5 5 8 8 8 7 8 6 11 12 20 18 15 11 10 10 8 8 11 9 8 9 9 8 6 6 7 5 4 5 6 4 5 4 5 4 4 2 2 3 5 6 7 6 3
5 7 7 13 5 7 9 8 6 7 6 5 12 19 19 20 16 15 10 11 10 7 8 11 10 9 8 7 6 4 3 4 4 6 5 5 4 3 3 2 2 2 1 1 3 3 3 4 4
5 8 6 6 7 7 9 7 7 6 8 8 10 20 20 19 20 19 16 15 14 12 8 9 9 7 6 6 6 4 4 4 3 4 6 4 3 3 3 2 1 2 2 3 3 2 1 0 2
6 6 9 12 11 11 12 12 8 9 12 10 6 19 17 14 12 10 12 15 15 15 10 9 7 6 6 6 5 5 4 5 5 5 4 2 4 4 3 2 2 2 1 1 2 3 3 3 4
8 12 12 10 11 9 13 9 5 8 9 12 12 16 17 18 18 11 9 15 17 14 14 9 8 7 6 6 7 5 5 5 5 5 4 4 2 4 4 4 3 1 1 1 2 2 2 3 3
12 14 17 15 9 12 11 13 15 12 11 11 11 11 16 17 17 17 14 13 18 14 14 12 9 7 7 7 7 5 5 6 5 5 5 5 3 4 3 4 4 3 2 5 4 4 4 4 3
7 6 6 3 10 11 8 18 10 12 11 14 14 12 17 18 20 16 14 18 15 16 16 11 9 7 7 6 5 4 5 5 5 5 4 4 4 4 3 5 4 4 4 4 3 3 3 3 3
5 6 9 10 7 10 7 13 10 8 8 9 8 14 9 18 16 17 15 20 17 16 13 11 10 8 6 6 5 5 6 5 5 5 4 4 3 4 5 4 4 4 4 4 3 3 2 3 3
5 7 8 9 9 14 9 9 8 9 7 6 8 8 10 13 19 18 17 20 18 17 15 15 10 9 7 5 4 4 3 3 4 4 5 5 2 3 5 4 4 4 4 4 3 3 3 2 2
11 15 16 15 10 12 10 12 9 8 5 9 9 8 8 10 12 16 15 20 19 19 18 17 15 10 6 3 4 3 2 1 3 4 6 6 2 3 6 4 4 5 5 4 3 2 2 4 4
13 15 14 6 10 13 15 19 8 8 9 7 11 13 11 8 7 8 15 20 20 21 19 18 18 16 10 6 4 3 3 2 3 3 4 4 2 2 5 6 5 6 5 5 4 4 2 2 3
11 8 6 8 12 7 9 13 8 8 11 11 16 9 6 8 7 8 16 17 18 20 21 20 18 17 13 10 5 4 4 4 3 3 3 1 1 2 5 6 5 5 5 5 3 3 5 3 2
6 7 10 10 9 5 7 11 3 9 6 16 16 17 15 19 18 9 10 15 19 17 14 14 14 13 9 8 6 10 5 5 4 4 2 2 2 3 4 5 5 5 4 5 4 4 3 4 3
6 5 5 5 4 7 3 6 3 7 4 14 14 14 13 15 14 14 6 7 9 11 11 12 13 11 8 8 8 8 7 4 4 4 7 4 1 1 3 5 6 6 5 5 6 6 6 4 5
4 4 6 5 0 6 11 10 6 3 9 12 12 13 13 13 15 20 13 14 11 8 8 8 10 10 8 7 9 9 9 7 6 7 6 4 3 2 2 5 5 5 5 5 5 6 7 6 6
5 4 2 3 0 8 2 6 7 10 13 14 12 9 8 8 13 14 12 10 8 9 9 8 8 8 9 8 9 9 9 9 14 11 8 7 4 3 4 4 5 4 5 6 6 6 6 5 6
9 8 6 5 5 4 5 5 4 9 11 10 10 7 9 10 8 9 9 7 5 8 8 7 7 6 8 9 8 7 8 7 8 10 9 7 6 5 5 5 6 6 6 5 5 5 5 5 5
7 9 8 3 4 3 4 4 4 3 7 7 7 8 7 8 8 10 8 4 3 6 7 9 8 7 7 8 7 7 6 8 8 10 7 7 7 6 6 6 6 6 5 6 6 5 5 6 4
2 6 1 3 5 6 4 6 4 6 6 6 9 9 7 5 8 8 8 6 4 4 5 3 4 5 4 5 5 5 5 6 7 7 7 10 10 9 9 6 6 6 6 6 6 5 6 8 4
2 4 3 4 5 5 1 4 6 7 6 4 3 0 5 5 6 6 5 6 6 4 5 6 6 7 6 5 4 5 5 5 7 7 8 10 9 10 7 6 5 5 5 5 5 6 8 9 6
3 1 7 5 4 4 5 6 12 10 6 1 5 3 3 6 7 7 6 6 7 6 5 7 7 7 7 7 7 5 6 7 8 8 8 8 10 7 9 8 5 5 6 5 6 7 7 8 7
Wind_Direction
310 305 194 19 43 75 268 270 223 22 55 80 65 82 95 53 19 168 141 109 121 130 136 129 124 122 118 120 126 136 138 137 136 132 133 135 129 127 122 119 115 109 103 97 94 90 83 75 61
311 310 55 265 100 326 276 264 97 76 91 71 103 111 54 62 36 125 119 130 126 132 121 121 119 117 119 120 124 129 133 135 141 141 141 142 139 140 139 137 130 127 117 116 110 100 91 81 57
243 190 70 148 181 205 255 341 108 76 55 90 102 58 88 121 104 83 127 132 131 128 119 121 117 120 119 118 122 128 131 138 142 145 148 146 144 145 145 150 147 140 131 135 126 115 106 96 78
324 29 333 94 262 263 226 262 125 106 67 81 105 77 66 12 130 149 137 129 104 107 112 117 121 124 125 126 124 126 131 136 138 145 149 144 147 147 151 153 155 145 149 151 135 145 126 124 109
238 358 277 248 261 274 289 239 61 43 152 163 99 129 90 35 125 150 117 118 112 108 110 114 123 127 126 123 124 128 130 131 134 143 148 141 147 148 154 158 161 160 156 149 136 134 138 143 151
339 113 7 267 284 289 316 161 99 22 105 151 90 109 116 156 148 170 110 115 119 118 113 118 117 117 121 122 125 127 125 127 131 140 140 139 145 151 155 164 167 169 160 158 167 154 164 168 192
169 74 243 298 300 304 326 344 47 31 2 271 132 91 119 175 194 119 111 110 114 117 113 113 113 113 110 120 120 119 122 121 124 131 129 134 143 154 161 172 184 198 195 176 179 177 205 226 217
332 119 277 277 282 293 357 6 17 31 316 338 95 135 169 195 161 109 106 112 113 121 130 129 127 131 117 112 125 131 126 121 131 122 133 146 154 173 181 197 206 211 219 215 215 213 233 244 239
277 17 266 254 31 305 360 5 334 327 18 41 56 117 138 159 125 123 122 118 128 141 143 145 155 148 133 128 130 129 137 142 139 140 143 139 83 212 98 78 102 96 207 216 209 211 225 252 267
145 162 242 243 335 327 327 14 320 346 331 79 82 98 132 135 135 148 155 154 150 153 154 158 160 152 148 152 155 153 153 155 164 141 121 100 87 76 87 89 96 137 165 218 234 223 233 241 242
249 222 249 278 327 351 315 324 300 318 311 285 164 152 159 152 155 159 174 167 165 160 164 163 163 166 156 149 168 162 164 141 121 116 117 118 105 87 91 83 59 9 216 263 231 235 230 238 235
312 288 289 278 307 315 297 286 297 293 254 309 161 171 163 167 169 171 175 169 166 161 174 164 171 165 170 165 169 168 152 140 120 122 124 133 117 114 112 126 68 62 32 27 25 38 180 315 342
297 288 291 288 283 271 275 270 247 270 293 308 333 161 176 171 174 179 179 164 161 168 164 164 152 156 166 141 129 121 111 116 128 104 84 124 143 154 159 172 177 176 95 55 12 5 16 347 9
303 311 306 294 286 290 300 283 311 272 272 285 289 166 174 174 178 172 190 169 164 160 157 148 153 160 131 125 115 108 112 109 95 90 67 62 115 145 171 173 173 113 109 70 31 41 12 356 13
325 313 306 286 294 278 265 270 254 254 249 249 259 177 183 186 175 184 197 160 160 158 147 149 150 153 125 125 117 116 121 107 102 97 73 60 52 79 71 90 91 100 46 27 18 25 39 24 10
319 294 280 123 256 257 174 261 265 242 224 237 239 245 185 186 185 183 188 152 156 150 150 140 134 118 123 123 115 119 116 114 118 117 103 77 62 46 79 100 87 48 63 55 35 23 44 34 41
235 261 265 296 265 268 187 273 217 232 256 252 234 237 189 185 187 187 172 155 152 146 144 128 119 126 123 116 108 116 130 126 134 124 116 105 74 54 101 101 88 49 86 62 39 35 68 39 16
230 248 285 289 302 318 327 308 297 264 278 254 280 264 201 176 193 186 173 159 141 144 138 134 125 120 115 94 90 87 81 112 117 128 130 114 102 105 105 92 92 79 88 68 39 40 30 89 39
256 266 273 280 296 327 310 298 297 300 340 330 306 263 228 200 206 188 163 150 137 142 140 141 131 138 127 100 103 74 137 104 86 114 120 123 131 102 134 128 99 104 100 92 60 28 75 22 3
252 265 275 288 333 319 316 301 294 304 298 285 273 266 227 236 204 174 151 151 149 151 144 144 148 149 150 146 149 144 149 97 113 93 77 114 124 104 127 129 119 127 106 84 59 65 57 88 30
267 268 278 304 322 325 327 305 318 324 321 356 2 305 332 245 232 140 153 155 146 150 157 158 156 153 151 157 148 121 84 64 61 51 68 17 128 86 97 118 105 116 121 117 99 81 99 131 30
270 288 314 321 295 305 13 294 328 291 306 60 43 40 38 31 32 26 151 146 155 156 141 139 142 148 154 158 149 152 146 148 160 145 128 65 46 48 82 84 94 87 84 95 95 73 74 105 101
275 35 338 307 2 328 253 270 128 304 357 72 52 51 37 39 36 29 138 91 66 110 114 128 139 154 164 163 151 147 141 157 140 128 131 123 82 101 103 109 106 101 96 89 74 60 65 72 90
63 27 328 310 128 279 237 219 305 305 128 86 73 57 49 41 31 37 74 85 81 80 92 111 141 164 168 154 147 151 153 156 132 145 145 152 157 184 133 111 109 105 106 103 99 87 81 77 83
135 107 302 340 148 241 287 240 221 94 82 84 74 54 47 51 53 45 62 98 109 128 150 167 160 157 170 158 156 161 171 157 154 166 160 158 161 164 163 126 115 108 112 110 102 91 84 88 94
181 167 169 203 203 264 346 265 119 94 93 96 81 62 40 62 61 66 49 67 160 175 177 169 169 156 157 160 167 165 171 163 164 171 163 164 161 160 161 130 126 123 117 107 107 102 99 84 87
182 202 208 360 9 31 224 356 247 108 80 67 69 54 44 69 71 72 57 49 48 219 200 180 177 169 159 167 168 175 174 165 162 173 165 161 143 141 135 134 130 129 119 118 111 115 111 107 92
106 144 81 81 199 217 235 208 186 65 64 65 37 4 345 123 87 75 84 65 347 40 198 168 144 153 160 149 169 173 172 163 152 156 140 139 142 136 134 130 130 134 129 123 115 109 100 103 86
130 161 187 167 158 179 306 265 171 115 82 338 133 266 351 113 105 105 90 92 75 95 107 112 108 104 94 120 131 132 135 125 119 122 124 126 123 132 126 132 130 131 123 120 112 109 111 106 97
51 355 164 140 257 219 150 252 179 142 157 108 33 298 16 154 161 156 156 115 77 52 124 153 165 158 154 143 135 140 129 123 116 118 119 119 124 117 126 130 131 106 115 117 124 123 122 115 116